FW9486 Weather Reports


Display with metric or nautical units.
time (UTC)temp
F
wind
direction
speed
MPH
gust
MPH
rain 1hr
in
rain 24hr
in
rain mn
in
humidity
%
barometer
mb
20260507230035 70 0 1.0 9.0 0.00 0.00 0.00 31 1010.4
20260507224536 71 286 4.0 7.0 0.00 0.00 0.00 29 1010.5
20260507223034 72 9 3.0 7.0 0.00 0.00 0.00 27 1010.7
20260507221536 71 59 1.0 11.0 0.00 0.00 0.00 30 1010.8
20260507220035 71 277 3.0 9.0 0.00 0.00 0.00 30 1011.1
20260507214536 71 69 1.0 8.0 0.00 0.00 0.00 30 1011.1
20260507213043 71 200 1.0 6.0 0.00 0.00 0.00 30 1011.2
20260507211539 71 0 2.0 7.0 0.00 0.00 0.00 30 1011.3
20260507210040 70 269 1.0 8.0 0.00 0.00 0.00 32 1011.5
20260507204539 70 277 4.0 10.0 0.00 0.00 0.00 29 1011.8
20260507203036 70 234 6.0 12.0 0.00 0.00 0.00 32 1011.9
20260507201538 69 266 3.0 8.0 0.00 0.00 0.00 28 1012.1
20260507200039 69 295 1.0 8.0 0.00 0.00 0.00 33 1012.2
20260507194537 68 209 4.0 15.0 0.00 0.00 0.00 35 1012.1
20260507193047 68 221 4.0 12.0 0.00 0.00 0.00 35 1012.0
20260507191535 68 18 2.0 6.0 0.00 0.00 0.00 41 1012.0
20260507190036 67 114 3.0 7.0 0.00 0.00 0.00 40 1011.9
20260507184541 66 146 3.0 6.0 0.00 0.00 0.00 38 1012.0
20260507183043 66 172 2.0 6.0 0.00 0.00 0.00 42 1012.2
20260507181535 65 287 2.0 7.0 0.00 0.00 0.00 45 1012.2
20260507180035 63 153 2.0 5.0 0.00 0.00 0.00 46 1012.5
20260507174535 62 134 1.0 5.0 0.00 0.00 0.00 50 1012.4
20260507173046 60 128 2.0 4.0 0.00 0.00 0.00 55 1012.7
20260507171545 59 112 2.0 4.0 0.00 0.00 0.00 57 1012.9
20260507170035 58 133 1.0 3.0 0.00 0.00 0.00 67 1012.8
20260507164536 56 155 0.0 2.0 0.00 0.00 0.00 68 1012.9
20260507163036 55 0 0.0 2.0 0.00 0.00 0.00 73 1012.9
20260507161535 54 0 0.0 1.0 0.00 0.00 0.00 76 1013.1
20260507160036 53 123 0.0 1.0 0.00 0.00 0.00 78 1013.1
20260507154539 52 0 0.0 3.0 0.00 0.00 0.00 79 1013.1
20260507153036 51 137 1.0 3.0 0.00 0.00 0.00 79 1013.1
20260507151538 50 0 0.0 2.0 0.00 0.00 0.00 79 1013.1
20260507150039 50 114 0.0 2.0 0.00 0.00 0.00 79 1013.0
20260507144607 51 110 0.0 2.0 0.00 0.00 0.00 77 1012.9
20260507143036 49 0 0.0 1.0 0.00 0.00 0.00 80 1012.8
20260507141538 48 0 0.0 1.0 0.00 0.00 0.00 79 1012.8
20260507140042 45 0 0.0 1.0 0.00 0.00 0.00 85 1012.6
20260507134542 45 71 0.0 1.0 0.00 0.00 0.00 85 1012.6
20260507133038 43 0 0.0 1.0 0.00 0.00 0.00 91 1012.5
20260507131541 41 0 0.0 0.0 0.00 0.00 0.00 91 1012.4
20260507130035 41 0 0.0 1.0 0.00 0.00 0.00 93 1012.4
20260507124534 41 0 0.0 0.0 0.00 0.00 0.00 92 1012.4
20260507123037 41 0 0.0 1.0 0.00 0.00 0.00 93 1012.3
20260507121536 41 0 0.0 0.0 0.00 0.00 0.00 92 1012.2
20260507120035 41 0 0.0 1.0 0.00 0.00 0.00 93 1012.2
20260507114535 41 0 0.0 0.0 0.00 0.00 0.00 90 1012.2
20260507113038 42 61 0.0 1.0 0.00 0.00 0.00 91 1012.1
20260507111542 43 331 0.0 2.0 0.00 0.00 0.00 89 1012.1
20260507110036 44 37 0.0 2.0 0.00 0.00 0.00 88 1012.1
20260507104537 44 0 0.0 1.0 0.00 0.00 0.00 88 1012.0
20260507103040 44 0 0.0 0.0 0.00 0.00 0.00 88 1012.2
20260507101547 45 0 0.0 0.0 0.00 0.00 0.00 84 1012.0
20260507100042 45 0 0.0 1.0 0.00 0.00 0.00 87 1012.1
20260507094544 45 0 0.0 0.0 0.00 0.00 0.00 87 1012.1
20260507093043 45 0 0.0 2.0 0.00 0.00 0.00 87 1012.1
20260507091539 46 77 0.0 2.0 0.00 0.00 0.00 86 1012.2
20260507090040 45 0 0.0 2.0 0.00 0.00 0.00 85 1012.2
20260507084538 47 0 0.0 1.0 0.00 0.00 0.00 84 1012.2
20260507083035 46 0 0.0 2.0 0.00 0.00 0.00 86 1012.1
20260507081536 46 360 0.0 1.0 0.00 0.00 0.00 85 1012.2
20260507080044 47 0 0.0 1.0 0.00 0.00 0.00 82 1012.2
20260507074538 48 0 0.0 1.0 0.00 0.00 0.00 80 1012.5
20260507073037 49 0 0.0 2.0 0.00 0.00 0.00 79 1012.4
20260507071538 50 0 0.0 0.0 0.00 0.00 0.00 76 1012.2
20260507070035 51 0 0.0 1.0 0.00 0.00 0.00 73 1012.1
20260507064535 51 0 0.0 1.0 0.00 0.00 0.00 74 1012.0
20260507063045 51 23 0.0 1.0 0.00 0.00 0.00 75 1012.1
20260507061537 52 0 0.0 1.0 0.00 0.00 0.00 73 1012.2
20260507060048 52 0 0.0 2.0 0.00 0.00 0.00 71 1012.3
20260507054545 54 25 0.0 1.0 0.00 0.00 0.00 68 1012.2
20260507053037 54 0 0.0 1.0 0.00 0.00 0.00 66 1012.4
20260507051537 55 0 0.0 1.0 0.00 0.00 0.00 64 1012.4
20260507050037 56 0 0.0 0.0 0.00 0.00 0.00 61 1012.4
20260507044549 56 19 0.0 1.0 0.00 0.00 0.00 61 1012.5
20260507043036 57 20 0.0 1.0 0.00 0.00 0.00 60 1012.7
20260507041536 58 0 0.0 1.0 0.00 0.00 0.00 58 1012.6
20260507040042 57 20 1.0 1.0 0.00 0.00 0.00 59 1012.7
20260507034538 59 0 0.0 0.0 0.00 0.00 0.00 56 1012.4
20260507033035 59 356 0.0 1.0 0.00 0.00 0.00 55 1012.4
20260507031535 60 0 0.0 1.0 0.00 0.00 0.00 55 1012.3
20260507030035 59 34 0.0 1.0 0.00 0.00 0.00 54 1012.1
20260507024545 60 0 0.0 1.0 0.00 0.00 0.00 56 1012.1
20260507023037 63 0 1.0 3.0 0.00 0.00 0.00 49 1012.0
20260507021536 63 322 1.0 2.0 0.00 0.00 0.00 50 1012.0
20260507020045 65 319 2.0 4.0 0.00 0.00 0.00 44 1012.1
20260507014542 65 321 1.0 3.0 0.00 0.00 0.00 47 1012.1
20260507013049 65 321 2.0 5.0 0.00 0.00 0.00 42 1012.2
20260507011536 66 313 2.0 5.0 0.00 0.00 0.00 41 1012.1
20260507010042 67 314 3.0 9.0 0.00 0.00 0.00 40 1012.2
20260507004537 66 325 3.0 7.0 0.00 0.00 0.00 40 1012.3
20260507003035 66 280 2.0 6.0 0.00 0.00 0.00 42 1012.4
20260507001541 67 217 4.0 12.0 0.00 0.00 0.00 40 1012.4
20260507000035 66 225 7.0 14.0 0.00 0.00 0.00 39 1012.4
20260506234536 68 305 3.0 10.0 0.00 0.00 0.00 39 1012.6
20260506233037 68 264 2.0 11.0 0.00 0.00 0.00 41 1012.6
20260506231538 68 235 3.0 8.0 0.00 0.00 0.00 38 1012.9